Location: Presov
(49.0000°N, 21.2500°E)
Time: 09:38:12
(UTC+01:00)

CUBESAT XI-V - Visible Passes

Search period start: 08 December 2023 00:00
Search period end: 18 December 2023 00:00
Orbit: 661 x 683 km, 98.2° (Epoch: 06 December)

Date Brightness Start Highest point End Pass type
(mag) Time Alt. Az. Time Alt. Az. Time Alt. Az.
09 Dec ? 16:15:18 10° NNW 16:17:37 14° NW 16:19:56 10° W visible
12 Dec ? 16:18:23 10° NNW 16:20:31 13° NW 16:22:37 10° W visible
15 Dec ? 16:21:28 10° NNW 16:23:22 12° NW 16:25:15 10° WNW visible
